Time,TemperatureF,DewpointF,PressureIn,WindDirection,WindDirectionDegrees,WindSpeedMPH,WindSpeedGustMPH,Humidity,HourlyPrecipIn,Conditions,Clouds,dailyrainin,SoftwareType,DateUTC
2013-04-02 00:02:00,37.0,28.0,-100.00,NNE,30,6.0,7.0,70,-99.99,,,-99.99,,2013-04-02 06:02:00,
2013-04-02 00:12:00,37.0,28.0,-100.00,NE,50,6.0,8.0,71,-99.99,,,-99.99,,2013-04-02 06:12:00,
2013-04-02 00:22:00,37.0,28.0,-100.00,NE,50,6.0,8.0,71,-99.99,,,-99.99,,2013-04-02 06:22:00,
2013-04-02 00:32:00,37.0,30.0,-100.00,NE,45,7.0,12.0,74,-99.99,,,-99.99,,2013-04-02 06:32:00,
2013-04-02 00:42:00,37.0,30.0,-100.00,NE,45,8.0,10.0,76,-99.99,,,-99.99,,2013-04-02 06:42:00,
2013-04-02 00:52:00,37.0,30.0,-100.00,NNE,30,8.0,12.0,76,-99.99,,,-99.99,,2013-04-02 06:52:00,
2013-04-02 01:02:00,37.0,30.0,-100.00,NNE,30,9.0,12.0,76,-99.99,,,-99.99,,2013-04-02 07:02:00,
2013-04-02 01:12:00,37.0,30.0,-100.00,North,10,7.0,9.0,78,-99.99,,,-99.99,,2013-04-02 07:12:00,
2013-04-02 01:22:00,36.0,30.0,-100.00,NNE,30,6.0,9.0,78,-99.99,,,-99.99,,2013-04-02 07:22:00,
2013-04-02 01:32:00,36.0,31.0,-100.00,NNE,15,9.0,12.0,80,-99.99,,,-99.99,,2013-04-02 07:32:00,
2013-04-02 01:42:00,36.0,31.0,-100.00,North,10,9.0,12.0,80,-99.99,,,-99.99,,2013-04-02 07:42:00,
2013-04-02 01:52:00,37.0,31.0,-100.00,North,10,10.0,13.0,80,-99.99,,,-99.99,,2013-04-02 07:52:00,
2013-04-02 02:02:00,37.0,31.0,-100.00,NNE,15,7.0,12.0,80,-99.99,,,-99.99,,2013-04-02 08:02:00,
2013-04-02 02:13:00,37.0,31.0,-100.00,NNE,25,6.0,11.0,80,-99.99,,,-99.99,,2013-04-02 08:13:00,
2013-04-02 02:22:00,37.0,31.0,-100.00,North,10,11.0,13.0,80,-99.99,,,-99.99,,2013-04-02 08:22:00,
2013-04-02 02:32:00,37.0,31.0,-100.00,North,5,8.0,12.0,79,-99.99,,,-99.99,,2013-04-02 08:32:00,
2013-04-02 02:42:00,37.0,31.0,-100.00,North,5,9.0,12.0,79,-99.99,,,-99.99,,2013-04-02 08:42:00,
2013-04-02 02:52:00,37.0,31.0,-100.00,NNE,15,9.0,12.0,79,-99.99,,,-99.99,,2013-04-02 08:52:00,
2013-04-02 03:02:00,37.0,31.0,-100.00,North,5,10.0,12.0,78,-99.99,,,-99.99,,2013-04-02 09:02:00,
2013-04-02 03:12:00,37.0,30.0,-100.00,NNE,20,9.0,13.0,74,-99.99,,,-99.99,,2013-04-02 09:12:00,
2013-04-02 03:22:00,37.0,28.0,-100.00,NNE,20,9.0,14.0,69,-99.99,,,-99.99,,2013-04-02 09:22:00,
2013-04-02 03:32:00,38.0,28.0,-100.00,NNE,25,10.0,12.0,67,-99.99,,,-99.99,,2013-04-02 09:32:00,
2013-04-02 03:43:00,38.0,28.0,-100.00,NNE,20,9.0,13.0,66,-99.99,,,-99.99,,2013-04-02 09:43:00,
2013-04-02 03:52:00,38.0,28.0,-100.00,NE,40,9.0,12.0,65,-99.99,,,-99.99,,2013-04-02 09:52:00,
2013-04-02 04:03:00,38.0,27.0,-100.00,NNE,30,7.0,11.0,64,-99.99,,,-99.99,,2013-04-02 10:03:00,
2013-04-02 04:13:00,38.0,27.0,-100.00,NE,45,9.0,12.0,64,-99.99,,,-99.99,,2013-04-02 10:13:00,
2013-04-02 04:23:00,38.0,27.0,-100.00,NE,35,7.0,11.0,63,-99.99,,,-99.99,,2013-04-02 10:23:00,
2013-04-02 04:33:00,38.0,27.0,-100.00,NE,35,6.0,11.0,63,-99.99,,,-99.99,,2013-04-02 10:33:00,
2013-04-02 04:42:00,38.0,27.0,-100.00,NE,35,7.0,10.0,63,-99.99,,,-99.99,,2013-04-02 10:42:00,
2013-04-02 04:52:00,38.0,27.0,-100.00,ENE,60,9.0,12.0,63,-99.99,,,-99.99,,2013-04-02 10:52:00,
2013-04-02 05:02:00,38.0,27.0,-100.00,ENE,65,7.0,14.0,63,-99.99,,,-99.99,,2013-04-02 11:02:00,
2013-04-02 05:12:00,38.0,27.0,-100.00,ENE,60,11.0,14.0,62,-99.99,,,-99.99,,2013-04-02 11:12:00,
2013-04-02 05:22:00,38.0,26.0,-100.00,ENE,75,11.0,16.0,61,-99.99,,,-99.99,,2013-04-02 11:22:00,
2013-04-02 05:32:00,38.0,26.0,-100.00,ENE,75,11.0,15.0,61,-99.99,,,-99.99,,2013-04-02 11:32:00,
2013-04-02 05:42:00,38.0,26.0,-100.00,ENE,65,10.0,14.0,62,-99.99,,,-99.99,,2013-04-02 11:42:00,
2013-04-02 05:52:00,38.0,26.0,-100.00,ENE,75,11.0,14.0,62,-99.99,,,-99.99,,2013-04-02 11:52:00,
2013-04-02 06:02:00,38.0,27.0,-100.00,ENE,75,13.0,16.0,62,-99.99,,,-99.99,,2013-04-02 12:02:00,
2013-04-02 06:12:00,38.0,27.0,-100.00,ENE,70,12.0,16.0,63,-99.99,,,-99.99,,2013-04-02 12:12:00,
2013-04-02 06:22:00,38.0,27.0,-100.00,ENE,75,11.0,14.0,63,-99.99,,,-99.99,,2013-04-02 12:22:00,
2013-04-02 06:32:00,38.0,27.0,-100.00,ENE,70,9.0,13.0,63,-99.99,,,-99.99,,2013-04-02 12:32:00,
2013-04-02 06:42:00,38.0,27.0,-100.00,ENE,75,10.0,12.0,63,-99.99,,,-99.99,,2013-04-02 12:42:00,
2013-04-02 06:52:00,38.0,27.0,-100.00,ENE,75,8.0,11.0,63,-99.99,,,-99.99,,2013-04-02 12:52:00,
2013-04-02 07:02:00,38.0,27.0,-100.00,ENE,70,7.0,11.0,63,-99.99,,,-99.99,,2013-04-02 13:02:00,
2013-04-02 07:12:00,38.0,27.0,-100.00,ENE,75,6.0,9.0,64,-99.99,,,-99.99,,2013-04-02 13:12:00,
2013-04-02 07:22:00,38.0,28.0,-100.00,ENE,70,6.0,9.0,64,-99.99,,,-99.99,,2013-04-02 13:22:00,
2013-04-02 07:32:00,38.0,28.0,-100.00,NE,40,4.0,7.0,64,-99.99,,,-99.99,,2013-04-02 13:32:00,
2013-04-02 07:42:00,39.0,28.0,-100.00,NE,40,4.0,6.0,64,-99.99,,,-99.99,,2013-04-02 13:42:00,
2013-04-02 07:52:00,39.0,28.0,-100.00,NE,40,6.0,7.0,64,-99.99,,,-99.99,,2013-04-02 13:52:00,
2013-04-02 08:02:00,39.0,28.0,-100.00,NE,40,6.0,7.0,64,-99.99,,,-99.99,,2013-04-02 14:02:00,
2013-04-02 08:12:00,39.0,28.0,-100.00,NE,35,4.0,7.0,65,-99.99,,,-99.99,,2013-04-02 14:12:00,
2013-04-02 08:22:00,39.0,29.0,-100.00,North,10,4.0,6.0,64,-99.99,,,-99.99,,2013-04-02 14:22:00,
2013-04-02 08:32:00,39.0,28.0,-100.00,North,5,6.0,9.0,64,-99.99,,,-99.99,,2013-04-02 14:32:00,
2013-04-02 08:42:00,39.0,28.0,-100.00,North,10,9.0,11.0,64,-99.99,,,-99.99,,2013-04-02 14:42:00,
2013-04-02 08:52:00,39.0,28.0,-100.00,NNE,15,7.0,11.0,63,-99.99,,,-99.99,,2013-04-02 14:52:00,
2013-04-02 09:02:00,40.0,28.0,-100.00,NNE,15,9.0,11.0,62,-99.99,,,-99.99,,2013-04-02 15:02:00,
2013-04-02 09:11:00,40.0,27.0,-100.00,North,10,11.0,13.0,61,-99.99,,,-99.99,,2013-04-02 15:11:00,
2013-04-02 09:33:00,40.0,27.0,-100.00,North,10,11.0,12.0,59,-99.99,,,-99.99,,2013-04-02 15:33:00,
2013-04-02 09:42:00,41.0,28.0,-100.00,NNE,15,8.0,13.0,58,-99.99,,,-99.99,,2013-04-02 15:42:00,
2013-04-02 09:54:00,42.0,28.0,-100.00,North,10,11.0,14.0,57,-99.99,,,-99.99,,2013-04-02 15:54:00,
2013-04-02 10:03:00,42.0,28.0,-100.00,North,10,12.0,16.0,56,-99.99,,,-99.99,,2013-04-02 16:03:00,
2013-04-02 10:13:00,42.0,28.0,-100.00,NE,40,9.0,16.0,57,-99.99,,,-99.99,,2013-04-02 16:13:00,
2013-04-02 10:24:00,42.0,28.0,-100.00,NNE,20,11.0,16.0,57,-99.99,,,-99.99,,2013-04-02 16:24:00,
2013-04-02 10:34:00,42.0,28.0,-100.00,NNE,30,9.0,16.0,57,-99.99,,,-99.99,,2013-04-02 16:34:00,
2013-04-02 10:43:00,42.0,28.0,-100.00,NE,35,10.0,15.0,56,-99.99,,,-99.99,,2013-04-02 16:43:00,
2013-04-02 10:52:00,42.0,28.0,-100.00,NE,45,11.0,14.0,57,-99.99,,,-99.99,,2013-04-02 16:52:00,
2013-04-02 11:04:00,43.0,28.0,-100.00,NNE,30,9.0,15.0,56,-99.99,,,-99.99,,2013-04-02 17:04:00,
2013-04-02 11:13:00,44.0,28.0,-100.00,NE,35,11.0,16.0,54,-99.99,,,-99.99,,2013-04-02 17:13:00,
2013-04-02 11:24:00,44.0,29.0,-100.00,NE,35,8.0,14.0,54,-99.99,,,-99.99,,2013-04-02 17:24:00,
2013-04-02 11:34:00,46.0,29.0,-100.00,ENE,60,11.0,16.0,52,-99.99,,,-99.99,,2013-04-02 17:34:00,
2013-04-02 11:43:00,46.0,28.0,-100.00,NE,40,9.0,17.0,50,-99.99,,,-99.99,,2013-04-02 17:43:00,
2013-04-02 11:53:00,46.0,28.0,-100.00,NNE,30,10.0,14.0,49,-99.99,,,-99.99,,2013-04-02 17:53:00,
2013-04-02 12:03:00,46.0,28.0,-100.00,NE,45,10.0,16.0,48,-99.99,,,-99.99,,2013-04-02 18:03:00,
2013-04-02 12:12:00,47.0,28.0,-100.00,NE,45,10.0,16.0,47,-99.99,,,-99.99,,2013-04-02 18:12:00,
2013-04-02 12:23:00,47.0,28.0,-100.00,NE,50,9.0,19.0,47,-99.99,,,-99.99,,2013-04-02 18:23:00,
2013-04-02 12:33:00,47.0,28.0,-100.00,NE,35,11.0,16.0,46,-99.99,,,-99.99,,2013-04-02 18:33:00,
2013-04-02 12:42:00,48.0,28.0,-100.00,NNE,15,11.0,15.0,44,-99.99,,,-99.99,,2013-04-02 18:42:00,
2013-04-02 12:53:00,48.0,27.0,-100.00,NE,35,10.0,16.0,44,-99.99,,,-99.99,,2013-04-02 18:53:00,
2013-04-02 13:03:00,47.0,27.0,-100.00,NNE,30,10.0,16.0,44,-99.99,,,-99.99,,2013-04-02 19:03:00,
2013-04-02 13:13:00,48.0,27.0,-100.00,NNE,15,9.0,15.0,44,-99.99,,,-99.99,,2013-04-02 19:13:00,
2013-04-02 13:22:00,49.0,28.0,-100.00,NE,45,12.0,19.0,43,-99.99,,,-99.99,,2013-04-02 19:22:00,
2013-04-02 13:33:00,48.0,28.0,-100.00,North,10,12.0,20.0,45,-99.99,,,-99.99,,2013-04-02 19:33:00,
2013-04-02 13:45:00,48.0,28.0,-100.00,NNE,20,16.0,20.0,44,-99.99,,,-99.99,,2013-04-02 19:45:00,
2013-04-02 13:53:00,48.0,28.0,-100.00,NNE,25,12.0,19.0,44,-99.99,,,-99.99,,2013-04-02 19:53:00,
2013-04-02 14:03:00,48.0,27.0,-100.00,NE,35,13.0,20.0,44,-99.99,,,-99.99,,2013-04-02 20:03:00,
2013-04-02 14:13:00,48.0,27.0,-100.00,NNE,20,10.0,19.0,44,-99.99,,,-99.99,,2013-04-02 20:13:00,
2013-04-02 14:22:00,48.0,27.0,-100.00,NNE,30,14.0,20.0,43,-99.99,,,-99.99,,2013-04-02 20:22:00,
2013-04-02 14:33:00,47.0,27.0,-100.00,NNE,25,11.0,17.0,44,-99.99,,,-99.99,,2013-04-02 20:33:00,
2013-04-02 14:43:00,48.0,27.0,-100.00,NE,35,11.0,17.0,44,-99.99,,,-99.99,,2013-04-02 20:43:00,
2013-04-02 14:53:00,48.0,27.0,-100.00,NNE,20,12.0,16.0,44,-99.99,,,-99.99,,2013-04-02 20:53:00,
2013-04-02 15:03:00,48.0,27.0,-100.00,NNE,30,10.0,16.0,44,-99.99,,,-99.99,,2013-04-02 21:03:00,
2013-04-02 15:13:00,48.0,27.0,-100.00,NNE,20,12.0,19.0,44,-99.99,,,-99.99,,2013-04-02 21:13:00,
2013-04-02 15:23:00,48.0,27.0,-100.00,NNE,15,12.0,16.0,44,-99.99,,,-99.99,,2013-04-02 21:23:00,
2013-04-02 15:34:00,48.0,27.0,-100.00,NE,40,9.0,14.0,43,-99.99,,,-99.99,,2013-04-02 21:34:00,
2013-04-02 15:43:00,48.0,27.0,-100.00,NNE,15,11.0,16.0,44,-99.99,,,-99.99,,2013-04-02 21:43:00,
2013-04-02 15:54:00,49.0,28.0,-100.00,NNE,25,10.0,18.0,44,-99.99,,,-99.99,,2013-04-02 21:54:00,
2013-04-02 16:04:00,48.0,27.0,-100.00,NE,40,11.0,15.0,44,-99.99,,,-99.99,,2013-04-02 22:04:00,
2013-04-02 16:13:00,48.0,27.0,-100.00,North,10,12.0,16.0,44,-99.99,,,-99.99,,2013-04-02 22:13:00,
2013-04-02 16:23:00,48.0,27.0,-100.00,NNE,20,13.0,16.0,44,-99.99,,,-99.99,,2013-04-02 22:23:00,
2013-04-02 16:33:00,47.0,27.0,-100.00,North,0,12.0,17.0,44,-99.99,,,-99.99,,2013-04-02 22:33:00,
2013-04-02 16:43:00,47.0,27.0,-100.00,NNE,20,12.0,18.0,45,-99.99,,,-99.99,,2013-04-02 22:43:00,
2013-04-02 16:53:00,46.0,26.0,-100.00,NNE,25,12.0,18.0,45,-99.99,,,-99.99,,2013-04-02 22:53:00,
2013-04-02 17:02:00,45.0,26.0,-100.00,NNE,15,12.0,18.0,47,-99.99,,,-99.99,,2013-04-02 23:02:00,
2013-04-02 17:12:00,44.0,26.0,-100.00,NNE,20,13.0,17.0,47,-99.99,,,-99.99,,2013-04-02 23:12:00,
2013-04-02 17:23:00,44.0,26.0,-100.00,North,10,7.0,17.0,48,-99.99,,,-99.99,,2013-04-02 23:23:00,
2013-04-02 17:33:00,44.0,26.0,-100.00,NNE,15,12.0,16.0,49,-99.99,,,-99.99,,2013-04-02 23:33:00,
2013-04-02 17:42:00,44.0,26.0,-100.00,NNE,20,9.0,14.0,49,-99.99,,,-99.99,,2013-04-02 23:42:00,
2013-04-02 17:52:00,43.0,26.0,-100.00,NE,40,9.0,14.0,49,-99.99,,,-99.99,,2013-04-02 23:52:00,
2013-04-02 18:03:00,43.0,26.0,-100.00,NE,35,10.0,15.0,50,-99.99,,,-99.99,,2013-04-03 00:03:00,
2013-04-02 18:13:00,43.0,26.0,-100.00,NNE,25,10.0,14.0,50,-99.99,,,-99.99,,2013-04-03 00:13:00,
2013-04-02 18:23:00,42.0,26.0,-100.00,NE,45,9.0,14.0,51,-99.99,,,-99.99,,2013-04-03 00:23:00,
2013-04-02 18:33:00,42.0,26.0,-100.00,NNE,30,9.0,13.0,51,-99.99,,,-99.99,,2013-04-03 00:33:00,
2013-04-02 18:53:00,41.0,27.0,-100.00,ENE,75,7.0,12.0,55,-99.99,,,-99.99,,2013-04-03 00:53:00,
2013-04-02 19:03:00,41.0,28.0,-100.00,East,80,9.0,12.0,59,-99.99,,,-99.99,,2013-04-03 01:03:00,
2013-04-02 19:12:00,40.0,29.0,-100.00,East,80,9.0,12.0,63,-99.99,,,-99.99,,2013-04-03 01:12:00,
2013-04-02 19:22:00,40.0,30.0,-100.00,NE,45,6.0,11.0,66,-99.99,,,-99.99,,2013-04-03 01:22:00,
2013-04-02 19:33:00,39.0,30.0,-100.00,NE,55,9.0,12.0,71,-99.99,,,-99.99,,2013-04-03 01:33:00,
2013-04-02 19:42:00,38.0,31.0,-100.00,NE,45,4.0,8.0,75,-99.99,,,-99.99,,2013-04-03 01:42:00,
2013-04-02 19:52:00,38.0,32.0,-100.00,NE,50,6.0,9.0,77,-99.99,,,-99.99,,2013-04-03 01:52:00,
2013-04-02 20:03:00,38.0,31.0,-100.00,NE,40,9.0,12.0,78,-99.99,,,-99.99,,2013-04-03 02:03:00,
2013-04-02 20:23:00,38.0,33.0,-100.00,NNE,15,7.0,10.0,79,-99.99,,,-99.99,,2013-04-03 02:23:00,
2013-04-02 20:33:00,38.0,33.0,-100.00,North,10,5.0,9.0,80,-99.99,,,-99.99,,2013-04-03 02:33:00,
2013-04-02 20:43:00,38.0,33.0,-100.00,North,350,6.0,7.0,81,-99.99,,,-99.99,,2013-04-03 02:43:00,
2013-04-02 20:52:00,38.0,33.0,-100.00,North,0,6.0,9.0,82,-99.99,,,-99.99,,2013-04-03 02:52:00,
2013-04-02 21:04:00,38.0,33.0,-100.00,NE,45,6.0,11.0,82,-99.99,,,-99.99,,2013-04-03 03:04:00,
2013-04-02 21:13:00,38.0,32.0,-100.00,NE,35,9.0,12.0,80,-99.99,,,-99.99,,2013-04-03 03:13:00,
2013-04-02 21:22:00,38.0,33.0,-100.00,NE,40,9.0,12.0,80,-99.99,,,-99.99,,2013-04-03 03:22:00,
2013-04-02 21:35:00,38.0,33.0,-100.00,NE,35,7.0,11.0,81,-99.99,,,-99.99,,2013-04-03 03:35:00,
2013-04-02 21:43:00,37.0,33.0,-100.00,NE,40,8.0,11.0,82,-99.99,,,-99.99,,2013-04-03 03:43:00,
2013-04-02 21:53:00,37.0,33.0,-100.00,NE,35,9.0,12.0,83,-99.99,,,-99.99,,2013-04-03 03:53:00,
2013-04-02 22:03:00,37.0,33.0,-100.00,NNE,30,7.0,11.0,85,-99.99,,,-99.99,,2013-04-03 04:03:00,
2013-04-02 22:12:00,37.0,33.0,-100.00,NNE,15,7.0,9.0,85,-99.99,,,-99.99,,2013-04-03 04:12:00,
2013-04-02 22:23:00,37.0,33.0,-100.00,NNE,30,7.0,9.0,86,-99.99,,,-99.99,,2013-04-03 04:23:00,
2013-04-02 22:33:00,36.0,33.0,-100.00,NNE,30,6.0,10.0,87,-99.99,,,-99.99,,2013-04-03 04:33:00,
2013-04-02 22:42:00,36.0,33.0,-100.00,NE,35,7.0,9.0,87,-99.99,,,-99.99,,2013-04-03 04:42:00,
2013-04-02 22:53:00,36.0,33.0,-100.00,NE,35,7.0,11.0,87,-99.99,,,-99.99,,2013-04-03 04:53:00,
2013-04-02 23:02:00,36.0,33.0,-100.00,NE,40,6.0,11.0,87,-99.99,,,-99.99,,2013-04-03 05:02:00,
2013-04-02 23:12:00,36.0,33.0,-100.00,NE,45,4.0,10.0,87,-99.99,,,-99.99,,2013-04-03 05:12:00,
2013-04-02 23:22:00,36.0,33.0,-100.00,NE,40,7.0,10.0,88,-99.99,,,-99.99,,2013-04-03 05:22:00,
2013-04-02 23:32:00,35.0,32.0,-100.00,NE,35,8.0,9.0,88,-99.99,,,-99.99,,2013-04-03 05:32:00,
2013-04-02 23:42:00,35.0,32.0,-100.00,NE,40,7.0,9.0,88,-99.99,,,-99.99,,2013-04-03 05:42:00,
2013-04-02 23:52:00,35.0,32.0,-100.00,NE,35,6.0,8.0,88,-99.99,,,-99.99,,2013-04-03 05:52:00,